Satellite-Ground Cal/Val Site Overpasses Predictions

Prediction of Satellite NPP Overpassing Cal/Val Site: Antarctic Dome C

Ground Cal/Val Site Location: Latitude: -75.10, Longitude: 123.35; Satellite-Ground Site NADIR distance within 100 km.

Table of predicted overpasses for the next 14.0 days since TLE Epoch: 11/22/2016
Interval Starting Time Ending Time Minimum Distance Time Minimum Distance (km)
1 11/23/2016 07:32:07 11/23/2016 07:32:36 11/23/2016 07:32:21 4.13
2 11/26/2016 14:55:34 11/26/2016 14:56:03 11/26/2016 14:55:48 22.16
3 11/27/2016 14:36:51 11/27/2016 14:37:06 11/27/2016 14:36:59 85.12
4 11/28/2016 07:38:24 11/28/2016 07:38:51 11/28/2016 07:38:38 39.69
5 11/29/2016 07:19:37 11/29/2016 07:19:58 11/29/2016 07:19:47 70.26
6 12/01/2016 15:01:52 12/01/2016 15:02:16 12/01/2016 15:02:04 59.24
7 12/02/2016 14:43:02 12/02/2016 14:43:27 12/02/2016 14:43:15 50.05
8 12/03/2016 07:44:43 12/03/2016 07:45:02 12/03/2016 07:44:53 74.98


NCC Satellite Cal/Val Overpasses Prediction Service
